GFSMA_prec_radar_240.txt.gz
Reflectivity
-20 -20 -20 -20 -20 -20 -20 -20 -20 -20 -20 -20 -20 -20 -20 -20 -20 -20 -20 -20 -20 -20 -20 -20 -20 -20 -20 -20 -20 -20 -20 -20 -20 -20 -20 -20 -20 -20 -20 -20 -20 -16 -6
-20 -20 -20 -20 -20 -20 -20 -20 -20 -20 -20 -20 -20 -20 -20 -20 -20 -20 -20 -20 -20 -20 -20 -20 -20 -20 -20 -20 -20 -20 -20 -20 -20 -20 -20 -20 -20 -20 -20 -20 -20 -20 -20
-20 -20 -20 -20 -20 -20 -20 -20 -20 -20 -20 -20 -20 -20 -20 -20 -20 -5 -18 -20 -20 -20 -20 -20 -20 -20 -20 -20 -20 -20 -20 -20 -20 -20 -20 -20 -20 -20 -20 -20 -20 -20 -20
-20 -20 -20 -20 -20 -20 -20 -20 -20 -20 -20 -20 -20 -20 -13 -17 -20 -20 -20 -20 -20 -20 -3 -20 -20 -20 -20 -20 -20 -20 -20 -20 -20 -20 -20 -20 -20 -20 -20 -20 -20 -20 -20
-20 -20 -20 -20 -20 -20 -20 -20 -20 -20 -20 -20 -17 0 6 -18 -20 -20 -20 -20 11 -3 -19 -10 -10 -20 -20 -20 -20 -20 -20 -20 -20 -20 -20 -20 -20 -20 -20 -20 -20 -20 -20
-20 -20 -20 -20 -20 -20 -20 -20 -20 -20 -20 -20 0 -11 -20 -20 -20 -20 -6 -3 0 9 -20 -20 -20 -20 -20 -20 -20 -20 -20 -20 -20 -20 -20 -20 -20 -20 -20 -20 -20 -20 -20
-20 -20 -20 -20 -20 -20 -20 -20 -20 -20 -20 -20 3 -15 -20 -20 -20 -20 -5 -20 8 -20 -16 -20 -20 -20 -20 -20 -20 -20 -20 -20 -20 -20 -20 -20 -20 -20 -20 -20 -20 -20 -20
-20 -20 -20 -20 -20 -20 -20 -20 -20 -20 -20 -20 -20 -20 -20 -16 -20 -20 -20 -2 -20 -20 -20 -20 -20 -20 -20 -20 -20 -20 -20 -20 -20 -20 -20 -20 -20 -20 -20 -20 -20 -20 -20
-20 -20 -20 -20 -20 -20 -20 -20 -20 -20 -20 -20 -20 -20 -11 -20 -20 -17 -20 -20 -20 -20 -20 -20 -20 -20 -20 -20 -20 -20 -20 -20 -20 -20 -20 -20 -20 -20 -20 -19 -20 16 17
-20 -20 -20 -20 -20 -20 -20 -20 -20 -20 -20 -20 -20 -20 -20 -20 -20 -20 -20 -20 -20 -20 -20 -20 -20 -20 -20 -20 -20 -20 -20 -20 -20 -20 -20 -20 -20 -20 -20 13 14 11 19
-20 -20 -20 -20 -20 -20 -20 -20 -20 -20 -20 -20 -20 -20 -20 -20 -20 -20 -20 -20 -20 -20 -20 -20 -20 -20 -20 -20 -20 -20 -20 -20 -20 -20 -20 -20 -20 -20 1 6 16 9 17
-20 -20 -20 -20 -20 -20 -20 -20 -20 -20 -20 -20 -20 -20 -20 -20 -20 -20 -20 -20 -20 -20 -20 -20 -20 -20 -20 -20 -20 -20 -20 -20 -20 -20 -20 -20 -20 3 6 12 14 16 17
-20 -20 -20 -20 -20 -20 -20 -20 -20 -20 -20 -20 -20 -20 -20 -20 -20 -14 -20 -20 -20 -20 -20 -20 -20 -20 -20 -20 -20 -20 -20 -20 -20 -20 -20 -20 -20 -20 -3 6 3 6 7
-20 -20 -20 -20 -20 -20 -20 -20 -20 -20 -20 -20 -20 -20 -20 -20 -20 -20 -20 -20 -20 -20 -20 -20 -20 -20 -20 -20 -20 -20 -20 -20 -20 -20 -20 -20 -20 -20 -20 -19 6 12 13
-20 -20 -20 -19 -20 -20 -20 -18 6 2 -6 -20 -20 -8 -20 -20 -20 -20 -10 -20 -20 -20 -20 -20 -20 -20 -20 -20 -20 -20 -20 -20 -20 -20 -20 -20 -20 -20 -20 -20 -19 10 -6
-13 -20 -20 -20 -20 -20 -17 7 5 11 13 -13 4 -20 -20 -20 -20 -12 14 -17 -20 -20 -20 -20 -20 -20 -20 -20 -20 -20 -20 -20 -20 -20 -20 -20 -20 -20 -20 -20 -20 -17 -20
0 -19 5 -18 -6 1 6 11 10 12 17 -1 -20 -20 -20 -10 -15 -9 -9 5 -20 -20 -20 -20 -20 -20 -20 -20 -20 -20 -20 -20 -20 -20 -20 -20 -20 -20 -20 -20 -19 7 -20
-20 -20 -20 -15 2 10 13 15 14 16 10 -20 -20 -18 14 -14 -2 7 -10 2 7 -20 -20 -20 -20 -20 -20 -20 -20 -20 -20 -20 -20 -20 -20 -20 -20 -20 -20 -20 -3 -20 -20
-20 -18 -20 -20 -20 -17 8 18 -10 7 -18 -11 -18 31 32 30 30 -6 -5 -17 -20 -20 -20 -20 -20 -20 -20 -20 -20 -20 -20 -20 -20 -20 -20 -20 -20 -20 -20 -6 -20 -20 -20
-7 8 6 7 -6 13 18 10 13 17 20 16 16 32 31 31 12 7 -18 -20 -20 -20 -20 -20 -20 -20 -20 -20 -20 -20 -20 -20 -20 -20 -15 -20 -20 -2 -15 -20 -20 -20 -20
6 4 20 7 13 15 8 7 15 18 21 10 18 18 29 12 -17 8 -20 -20 -3 -20 -20 -20 -20 -20 -20 -20 -20 -20 -20 -20 -20 -20 -20 -20 -20 -20 -20 -19 -20 -20 -20
-20 -20 -7 15 10 13 21 13 11 6 14 13 28 -7 26 14 24 18 13 12 12 -20 -20 -20 -20 -20 -20 -20 -20 -20 -17 -20 -20 -20 -20 -20 -20 -20 -20 -20 0 -20 -20
-20 -20 -9 2 10 8 19 8 14 1 18 20 26 18 14 -5 22 -7 -5 -19 -20 -20 -8 -20 -20 -20 -20 -20 -20 -20 -20 -20 2 -20 -20 -20 -20 -20 -20 -16 -14 -20 -20
-20 -20 -3 19 9 -11 -13 -8 17 8 23 16 17 21 21 -14 -2 -6 -11 10 -11 3 -16 -20 -20 -20 -20 -20 -20 -15 -13 -20 -20 -20 -20 -20 -20 -20 -20 -19 1 -20 -20
9 8 -15 1 2 21 30 17 22 12 22 24 22 21 -11 -6 2 4 8 10 -3 -20 -17 -20 -20 -20 -20 -20 -20 -20 -20 -20 -20 -11 -17 -20 -19 -20 -20 -5 -15 -20 -20
6 -20 -12 -17 15 8 26 26 22 9 24 20 23 25 13 -6 -1 16 20 8 -12 -20 -20 -20 -20 -20 -20 -20 -0 -14 -1 -20 -20 -20 -20 -20 -19 -19 -20 -12 -7 -20 -20

GFSMA_prec_radar_243.txt.gz
Reflectivity
-20 -20 -20 -20 -20 -20 -20 -20 -20 -20 -20 -20 -20 -20 -20 -20 -20 -20 -20 -20 -20 -20 -20 -20 -20 -20 -20 -20 -20 -20 -20 -20 -20 -20 -20 -20 -20 -20 -20 -20 -20 -20 -20
-20 -20 -20 -20 -20 -20 -20 -20 -20 -20 -20 -20 -20 -20 -20 -20 -20 -20 -20 -20 -20 -20 -20 -20 -20 -20 -20 -20 -20 -20 -20 -20 -20 -20 -20 -20 -20 -20 -20 -20 -20 -20 -20
-20 -20 -20 -20 -20 -20 -20 -20 -20 -20 -20 -20 -20 -20 -20 -20 -20 -20 -20 -20 -20 -20 -20 -20 -20 -20 -20 -20 -20 -20 -20 -20 -20 -20 -20 -20 -20 -20 -20 -20 -20 -20 -20
-20 -20 -20 -20 -20 -20 -20 -20 -20 -20 -20 -20 -20 -20 -20 -20 -20 -20 -20 -19 -20 -20 11 -13 -20 -20 -20 -20 -20 -20 -20 -20 -20 -20 -20 -20 -20 -20 -20 -20 -20 -20 -20
-20 -20 -20 -20 -20 -20 -20 -20 -20 -20 -20 -20 -20 -20 -20 -12 0 5 -19 -20 -20 -17 -2 14 -19 -20 -20 -20 -20 -20 -20 -20 -20 -20 -20 -20 -20 -20 -20 -20 -20 -20 -20
-20 -20 -20 -20 -20 -20 -20 -20 -20 -20 -20 -20 -20 -20 -20 -20 -18 -19 -20 -20 -20 -20 -17 -20 -20 -20 -20 -20 -20 -20 -20 -20 -20 -20 -20 -20 -20 -20 -20 -20 -20 -20 -20
-20 -20 -20 -20 -20 -20 -20 -20 -20 -20 -20 -20 -20 -20 -20 -20 -20 -20 -20 -20 -20 -20 -20 -20 -20 -20 -20 -20 -20 -20 -20 -20 -20 -20 -20 -20 -20 -20 -20 -20 -20 -20 -20
-20 -20 -20 -20 -20 -20 -20 -20 -20 -20 -20 -20 -20 -20 -20 -20 -20 -20 -20 -20 -20 -1 -20 -20 -20 -20 -20 -20 -20 -20 -20 -20 -20 -20 -20 -20 -20 -20 -20 -20 -20 -10 -2
-20 -20 -20 -20 -20 -20 -20 -20 -20 -20 -20 -20 -20 -20 -20 -20 -20 -20 -20 -20 -20 -20 -20 -20 -20 -20 -20 -20 -20 -20 -20 -20 -20 -20 -20 -20 -20 -20 -20 -20 -20 11 7
-20 -20 -20 -20 -20 -20 -20 -20 -20 -20 -20 -20 -20 -20 -20 -20 -20 -20 -20 -20 -20 -20 -20 -20 -20 -20 -20 -20 -20 -20 -20 -20 -20 -20 -20 -20 -20 -20 -20 -20 -7 -3 15
-20 -20 -20 -20 -20 -20 -20 -20 -20 -20 -20 -20 -20 -20 -20 -20 -20 -20 -20 -20 -20 -20 -20 -20 -20 -20 -20 -20 -20 -20 -20 -20 -20 -20 -20 -20 -20 -20 -20 -7 9 14 14
-20 -20 -20 -20 -20 -20 -20 -20 -20 -20 -20 -20 -20 -20 -20 -20 -20 -20 -20 -20 -20 -20 -20 -20 -20 -20 -20 -20 -20 -20 -20 -20 -20 -20 -20 -20 -20 -20 -20 -19 5 14 15
-20 -20 -20 -20 -20 -20 -20 -20 -20 -20 -20 -20 -20 -20 -20 -20 -20 -20 -20 -20 -20 -20 -20 -20 -20 -20 -20 -20 -20 -20 -20 -20 -20 -20 -20 -20 -20 -20 -20 -20 -20 0 12
-20 -20 -17 -20 -20 -20 -20 -20 -20 -20 -20 -20 -20 -20 -20 -20 -20 -20 -20 -20 -20 -20 -20 23 -20 -20 -20 -20 -20 -20 -20 -20 -20 -20 -20 -20 -20 -20 -20 -20 -20 -2 5
-20 -13 12 -20 -20 -20 -20 -20 -20 -20 -20 -20 -20 -20 -20 -20 -20 -20 -20 -20 -20 -9 4 -11 20 -20 -20 -20 -20 -20 -20 -20 -20 -20 -20 -20 -20 -20 -20 -20 -20 0 16
-20 -20 -6 -20 -20 -20 -16 -20 -20 -20 -11 -12 2 5 -20 -20 -20 -20 -20 -0 30 26 17 -20 -4 -20 -20 -20 -20 -20 -20 -20 -20 -20 -20 -20 -20 -20 -20 -20 -20 10 12
-0 -4 -16 9 9 5 5 4 12 -3 13 13 12 11 16 -20 -8 -7 15 31 34 26 22 -19 -20 -20 -5 -20 -20 -20 -20 -20 -20 -20 -20 -20 -20 -20 -20 -20 -16 5 -20
-19 -20 -20 3 10 13 9 16 16 17 17 15 14 15 22 13 -19 1 -13 30 31 36 15 -9 16 -20 -20 -20 -20 -20 -20 -20 -20 -20 -20 -20 -20 -20 -20 -2 -19 -20 -20
-11 -10 -9 6 10 10 10 17 18 18 17 17 15 16 -6 3 -17 27 33 29 23 26 2 21 -20 -16 -20 -20 -20 -20 -20 -20 -20 -20 -20 -20 -20 -20 -16 2 -20 -20 -20
-17 -5 7 9 24 14 15 11 19 15 12 -4 -20 -5 -4 19 3 34 32 30 25 1 6 -11 -18 0 -20 -20 -20 -20 -20 -20 -20 -20 -20 -20 -20 -9 10 -19 8 -18 -20
-17 -20 -20 6 17 16 12 14 14 7 -3 -20 1 19 8 25 19 30 16 -17 28 21 5 20 -19 -20 -20 -20 -20 -20 -20 -20 -20 -20 -20 -20 -20 -20 -20 -18 13 -17 -20
-20 20 -16 -19 7 17 19 15 8 4 4 -8 26 15 30 29 21 30 18 27 19 -20 -20 -15 10 -16 -20 -12 -20 -20 -20 -20 -20 -20 -20 -20 -20 -20 -20 -20 11 -20 -20
-20 -20 -20 -20 -20 -20 7 -2 -6 -6 -0 7 -5 -8 10 9 26 21 20 23 17 7 11 -20 -20 -20 -20 -10 -20 -20 -20 -20 -20 -20 -20 -20 -20 -20 -20 -17 11 -20 -20
-20 -20 -20 -20 -5 -2 16 11 -12 -17 -1 13 -4 17 -19 -6 18 10 21 14 19 -9 -8 -0 -20 8 2 -2 -20 -20 -20 -20 -20 -20 -20 -20 -20 -20 -20 -20 -20 -20 -20
7 8 -20 -20 -20 -20 -18 -9 23 10 13 0 -20 21 2 24 28 22 19 16 16 13 9 -9 22 16 13 -10 -20 -20 -20 -20 -20 -20 -20 -20 -20 -20 -20 -20 -19 -20 -20
2 -20 -2 -20 -20 -20 -14 -10 14 -20 -8 18 8 31 23 21 28 24 16 18 18 1 23 9 30 15 8 -20 -20 -20 -20 -20 -20 -20 -19 -20 -20 -20 -20 -20 -20 -20 -20

GFSMA_prec_radar_249.txt.gz
Reflectivity
-20 -20 -20 -20 -20 -20 -20 -20 -20 -20 -20 -20 -20 -20 -20 -20 -20 -20 -20 -20 -20 -20 -20 -20 -20 -20 -20 -20 -11 -9 -20 -20 -20 -20 -20 -20 -20 -20 -20 -20 -20 -20 -20
-20 -20 -20 -20 -20 -20 -20 -20 -20 -20 -20 -20 -20 -20 -20 -20 -20 -20 -20 -20 -20 -20 -20 -20 -17 -20 -20 -20 -20 -20 -20 -20 -20 -20 -20 -20 -20 -20 -20 -20 -20 -20 -20
-20 -20 -20 -20 -20 -20 -20 -20 -20 -20 -20 -20 -20 -20 -20 -20 -20 -20 -20 -20 -20 -20 -20 -20 9 -20 -20 -20 -20 -20 -20 -20 -20 -20 -20 -20 -20 -20 -20 -20 -20 -20 -20
-20 -20 -20 -20 -20 -20 -20 -20 -20 -20 -20 -20 -20 -20 -20 -20 -20 -20 -20 -20 -20 -20 -20 -20 4 -13 -20 -20 -20 -20 -20 -20 -20 -20 -20 -20 -20 -20 -20 -20 -20 -20 -20
-20 -20 -20 -20 -20 -20 -20 -20 -20 -20 -20 -20 -20 -20 -20 -20 -20 -20 -20 -20 -20 -20 -20 -20 -9 -15 -4 -20 -20 -20 -20 -20 -20 -20 -20 -20 -20 -20 -20 -20 -20 -20 -20
-20 -20 -20 -20 -20 -20 -20 -20 -20 -20 -20 -20 -20 -20 -20 -20 -20 -20 -20 -20 -20 -20 -20 -20 -20 -20 -20 -20 -20 -20 -20 -20 -20 -20 -20 -20 -20 -20 -20 -20 -20 -20 -20
-20 -20 -20 -20 -20 -20 -20 -20 -20 -20 -20 -20 -20 -20 -20 -20 -20 -20 -20 -20 -20 -20 -20 -20 -20 -20 -20 -20 -20 -20 -20 -20 -20 -20 -20 -20 -20 -20 -20 -20 -20 -20 -20
-20 -20 -20 -20 -20 -20 -20 -20 -20 -20 -20 -20 -20 -20 -20 -20 -20 -20 -20 -20 -20 -20 -20 -20 -20 -20 -20 -20 -20 -20 -20 -20 -20 -20 -20 -20 -20 -20 -20 -20 -20 -20 -20
-20 -20 -20 -20 -20 -20 -20 -20 -20 -20 -20 -20 -20 -20 -20 -20 -20 -20 -20 -20 -20 -20 -20 -20 -20 -20 -20 -20 -20 -20 -20 -20 -20 -20 -20 -20 -20 -20 -20 -20 -20 -20 -20
-20 -20 -20 -20 -20 -20 -20 -20 -20 -20 -20 -20 -20 -20 -20 -20 -20 -20 -20 -20 -20 -20 -20 -20 -20 -20 -20 -20 -20 -20 -20 -20 -20 -20 -20 -20 -20 -20 -20 -20 -20 -20 -20
-20 -20 -20 -20 -20 -20 -20 -20 -20 -20 -20 -20 -20 -20 -20 -20 -20 -20 -20 -20 -20 -20 -20 -20 -20 -20 -20 -20 -20 -20 -20 -20 -20 -20 -20 -20 -20 -20 -20 -20 -20 -20 -20
-20 -20 -20 -20 -20 -20 -20 -20 -20 -20 -20 -20 -20 -20 -20 -20 -20 -20 -20 -20 -20 -20 -20 -20 -20 -20 -20 -20 -17 -19 -20 -20 -20 -20 -20 -20 -20 -20 -20 -20 -20 -20 -20
5 -20 -16 -16 -20 -20 -20 -20 -20 -20 -20 -20 -20 -20 -20 -20 -20 -20 -20 -20 -20 -20 -20 -20 -20 -20 -20 -20 10 11 -20 -20 -20 -20 -20 -20 -20 -20 -20 -20 -20 -20 -20
8 -10 -4 -5 -14 -20 -20 -20 -8 12 -20 -20 -20 -20 -20 -20 -20 -20 -20 -20 -20 -20 -20 -20 -20 -20 -20 -19 8 -1 -13 -20 -20 -20 -20 -20 -20 -20 -20 -20 -20 -20 -20
-1 20 41 5 -7 -20 -20 -20 -20 -17 0 -20 -20 -19 -20 -15 -14 -20 -20 6 25 27 16 -19 -20 -13 -18 23 18 13 22 9 4 -18 -12 12 -20 -20 -20 -20 -20 -20 -20
42 42 28 25 32 20 -13 -5 -20 -20 -6 30 27 25 -5 -10 -6 -13 -20 -2 22 25 24 -6 -20 13 6 21 -0 15 21 10 -5 13 7 -20 -20 -20 -20 -20 -20 -20 -20
15 15 25 27 38 7 32 4 4 14 22 33 12 32 5 -12 32 -11 -7 30 14 29 16 -8 27 26 28 17 40 41 25 -12 -4 -8 -20 -20 -20 -20 -20 -20 -20 -20 -20
24 29 -1 13 -2 -13 -20 -20 -18 -17 6 16 -1 14 -8 -20 -20 5 8 8 31 31 24 2 -20 11 21 40 38 38 21 4 -19 -7 -20 -20 -20 -20 -20 -20 -20 -20 1
-18 14 -20 -1 -13 -13 -7 -17 -13 -20 -7 -13 21 -19 -20 25 -15 21 6 6 25 33 5 27 22 28 27 25 38 37 18 1 3 9 -17 -17 -20 -20 -20 -20 -9 -18 7
-20 -20 -20 -20 -20 -20 -12 -6 -20 24 -19 -9 -8 -11 18 -9 10 18 9 19 15 22 19 -8 28 23 26 23 23 27 4 13 -17 -20 -3 -14 -20 -20 -20 -20 -20 -16 -20
-20 -20 -20 -20 -20 -20 -20 13 -6 -17 -20 -20 -20 -19 17 7 12 -8 11 -10 -17 8 19 25 16 19 14 15 28 18 12 -13 17 -13 -11 6 -20 -20 -20 -20 -19 -3 -20
-20 -20 -20 -20 -20 -20 9 -1 11 9 6 -20 -20 30 13 15 13 26 10 10 -14 -20 -17 23 1 14 11 17 23 21 -3 -1 11 17 -16 9 6 -20 -20 -20 -20 -20 -20
-20 -20 -20 -20 -20 -20 11 9 0 -20 -20 -20 -19 -11 -20 25 -2 -17 9 13 13 13 15 11 13 17 12 25 -15 -3 14 11 15 6 8 30 7 4 -6 -9 -9 -20 -20
-20 -20 -20 -20 -20 -20 12 11 -2 -20 -20 -19 -20 -10 -10 -11 9 6 -11 21 8 -7 -2 -7 -13 18 7 26 10 27 21 27 0 0 32 34 14 13 0 -19 -4 -16 -20
5 -5 -20 -20 -20 -20 -15 -16 -16 -20 -15 7 -20 -20 -20 -18 19 13 -15 3 0 -6 23 20 14 12 15 12 23 27 26 32 18 27 31 30 21 17 6 -3 -20 -20 -20
-20 -20 -20 -20 3 -20 10 6 -19 -20 -20 -20 -20 -20 11 3 -9 20 7 -1 7 18 25 18 -8 6 -2 14 19 21 11 18 32 31 22 13 22 11 4 -20 -20 -20 -20

GFSMA_prec_radar_252.txt.gz
Reflectivity
-20 -20 -20 -20 -20 -20 -20 -20 -20 -20 -20 -20 -20 -20 -20 -20 -20 -20 -20 -20 -20 -20 -20 -20 -20 -20 -19 -20 -4 -4 4 -20 -20 -20 -20 -20 -20 -20 -20 -20 -20 -20 -20
-20 -20 -20 -20 -20 -20 -20 -20 -20 -20 -20 -20 -20 -20 -20 -20 -20 -20 -20 -20 -20 -20 -20 -20 -20 -20 -20 -20 -13 -20 -20 -20 -20 -20 -20 -20 -20 -20 -20 -20 -20 -20 -20
-20 -20 -20 -20 -20 -20 -20 -20 -20 -20 -20 -20 -20 -20 -20 -20 -20 -20 -20 -20 -20 -20 -20 -20 -20 -12 -15 -20 -20 -20 -20 -20 -20 -20 -20 -20 -20 -20 -20 -20 -20 -20 -20
-20 -20 -20 -20 -20 -20 -20 -20 -20 -20 -20 -20 -20 -20 -20 -20 -20 -20 -20 -20 -20 -20 -20 -20 -20 -14 6 -18 -20 -20 -20 -20 -20 -20 -20 -20 -20 -20 -20 -20 -20 -20 -20
-20 -20 -20 -20 -20 -20 -20 -20 -20 -20 -20 -20 -20 -20 -20 -20 -20 -20 -20 -20 -20 -20 -20 -20 -20 -20 8 -19 -20 -20 -20 -20 -20 -20 -20 -20 -20 -20 -20 -20 -20 -20 -20
-20 -20 -20 -20 -20 -20 -20 -20 -20 -20 -20 -20 -20 -20 -20 -20 -20 -20 -20 -20 -20 -20 -20 -20 -20 -20 -20 -20 -20 -20 -20 -20 -20 -20 -20 -20 -20 -20 -20 -20 -20 -20 -20
-20 -20 -20 -20 -20 -20 -20 -20 -20 -20 -20 -20 -20 -20 -20 -20 -20 -20 -20 -20 -20 -20 -20 -20 -20 -20 -20 -20 -20 -20 -20 -20 -20 -20 -20 -20 -20 -20 -20 -20 -20 -20 -20
-20 -20 -20 -20 -20 -20 -20 -20 -20 -20 -20 -20 -20 -20 -20 -20 -20 -20 -20 -20 -20 -20 -20 -20 -20 -20 -20 -20 -20 -20 -20 -20 -20 -20 -20 -20 -20 -20 -20 -20 -20 -20 -20
-20 -20 -20 -20 -20 -20 -20 -20 -20 -20 -20 -20 -20 -20 -20 -20 -20 -20 -20 -20 -20 -20 -20 -20 -20 -20 -20 -20 -20 -20 -20 -20 -20 -20 -20 -20 -20 -20 -20 -20 -20 -20 -20
-20 -20 -20 -20 -20 -20 -20 -20 -20 -20 -20 -20 -20 -20 -20 -20 -20 -20 -20 -20 -20 -20 -20 -20 -20 -20 -20 -20 -20 -20 -20 -20 -19 -20 -20 -20 -20 -20 -20 -20 -20 -20 -20
-20 -20 -20 -19 -20 -20 -20 -20 -20 -20 -20 -20 -20 -20 -20 -20 -20 -20 -20 -20 -20 -20 -20 -20 -20 -20 -20 -20 -20 -20 -20 26 -10 -20 -20 -20 -20 -20 -20 -20 -20 -20 -20
-3 -19 -20 -17 -19 -20 -20 -14 -9 -20 -20 -20 -20 -20 -20 -20 -20 -20 -20 -20 -20 -20 -20 -20 -20 -20 -20 -20 -20 -20 1 -1 -12 -6 -17 -20 -20 -20 -20 -20 -20 -20 -20
17 -11 -16 -6 -20 -20 -20 -20 -20 -20 -20 -20 -20 -20 -3 -12 31 15 -5 22 -17 -20 -20 -20 -20 -20 -19 -20 -20 -20 -7 14 -9 11 13 -15 5 -20 -20 -20 -20 -20 -20
5 23 -16 -20 -20 -20 -20 -20 -20 -20 -20 -20 -20 -19 -12 -17 26 30 18 11 -9 -12 -13 -14 -19 -20 -20 -20 15 25 29 28 17 19 9 -7 -17 -14 -20 -20 -20 -20 -20
-16 21 -20 -20 -20 -20 -15 -20 -18 -5 -4 -4 -7 1 -19 13 15 13 -19 -20 27 21 8 -6 -11 -8 5 -18 10 -11 24 4 22 17 19 10 7 1 -20 -20 -20 -20 -20
-20 -20 29 21 26 23 45 12 10 6 18 12 32 35 22 24 -11 4 -20 8 14 -7 8 -3 -16 -11 -17 11 -20 -17 12 31 44 34 27 8 3 14 -4 -20 -20 -20 -20
-20 25 6 49 34 5 22 5 41 43 46 31 29 29 29 22 -17 4 4 13 2 27 22 24 -20 -10 -14 -7 -7 -14 1 29 25 28 22 -6 -12 10 -1 -20 -20 -20 -20
-5 11 33 36 35 12 -15 10 26 36 42 36 28 30 25 32 4 27 17 -11 10 15 29 27 15 15 -4 19 26 3 22 7 -7 19 17 -10 -15 21 -20 -20 -7 -20 -20
-6 -11 27 21 31 30 1 7 12 7 21 22 16 -0 -10 20 -14 -20 -20 9 12 12 17 20 13 8 11 24 25 25 22 20 35 20 8 -15 -11 1 -7 -7 -8 -20 -20
-20 -20 -19 5 4 -12 -0 -4 26 18 28 -11 5 -3 15 -4 -10 -18 -10 11 20 21 29 28 8 5 -3 10 21 23 17 14 14 14 -13 12 14 24 -11 9 -14 -18 -20
-20 -20 -20 -20 -20 -20 -20 -20 -20 5 -12 4 12 15 9 14 3 3 15 6 22 10 -1 -6 -13 11 1 -2 12 14 23 15 9 22 13 32 21 4 18 2 26 -2 -20
-20 -20 -20 -20 -20 -20 13 16 6 -20 -20 -18 -2 -0 -4 15 14 17 26 27 15 11 18 1 8 3 7 14 11 25 15 23 41 35 29 25 21 27 -1 23 17 28 -8
-20 -20 -20 -20 -20 -20 3 11 11 -20 -20 -20 -20 -20 -0 6 11 -19 11 16 11 14 19 6 10 -11 -10 -20 -15 22 20 12 19 21 27 28 28 25 38 37 26 2 -14
-20 -20 -20 -20 -20 -20 -20 -20 -13 -20 -20 -20 -20 -20 -20 -20 0 -4 -20 -2 9 -11 12 1 -19 -1 -10 -2 -12 -12 8 12 -11 -9 22 -15 11 35 27 9 8 7 -12
-20 -19 -20 -20 -20 -20 7 14 8 -20 -20 -8 -20 -20 -20 -20 6 11 -6 -19 -3 10 15 7 5 8 7 -17 7 -4 -18 -19 -13 -14 18 24 27 27 16 6 1 -12 -6
-4 -20 -20 -20 -20 -20 -16 7 7 -20 -20 -20 -20 -20 -15 -3 4 -20 -20 -20 -20 -1 11 -1 1 16 14 13 6 -9 -1 -13 23 23 19 23 20 14 2 2 -4 -18 -20

GFSMA_prec_radar_255.txt.gz
Reflectivity
-20 -20 -20 -20 -20 -20 -20 -20 -20 -20 -20 -20 -20 -20 -20 -20 -20 -20 -20 -20 -20 -20 -20 -20 -20 -20 -20 -20 -20 -17 -11 -20 5 -20 -20 -20 -20 -20 -20 -20 -20 -20 -20
-20 -20 -20 -20 -20 -20 -20 -20 -20 -20 -20 -20 -20 -20 -20 -20 -20 -20 -20 -20 -20 -20 -20 -20 -20 -20 -20 -3 -20 -11 -17 -0 -20 -20 -20 -20 -20 -20 -20 -20 -20 -20 -20
-20 -20 -20 -20 -20 -20 -20 -20 -20 -20 -20 -20 -20 -20 -20 -20 -20 -20 -20 -20 -20 -20 -20 -20 -20 -20 -12 -20 -20 -20 -20 -20 -20 -20 -20 -20 -20 -20 -20 -20 -20 -20 -20
-20 -20 -20 -20 -20 -20 -20 -20 -20 -20 -20 -20 -20 -20 -20 -20 -20 -20 -20 -20 -20 -20 -20 -20 -20 -20 -20 -20 -20 -20 -20 -20 -20 -20 -20 -20 -20 -20 -20 -20 -20 -20 -20
-20 -20 -20 -20 -20 -20 -20 -20 -20 -20 -20 -20 -20 -20 -20 -20 -20 -20 -20 -20 -20 -20 -20 -20 -20 -20 -20 -20 -19 -20 -20 -20 -20 -20 -20 -20 -20 -20 -20 -20 -20 -20 -20
-20 -20 -20 -20 -20 -20 -20 -20 -20 -20 -20 -20 -20 -20 -20 -20 -20 -20 -20 -20 -20 -20 -20 -20 -20 -20 -20 -20 -20 -20 -20 -20 -20 -20 -20 -20 -20 -20 -20 -20 -20 -20 -20
-20 -20 -20 -20 -20 -20 -20 -20 -20 -20 -20 -20 -20 -20 -20 -20 -20 -20 -20 -20 -20 -20 -20 -20 -20 -20 -20 -20 -20 -20 -20 -20 -20 -20 -20 -20 -20 -20 -20 -20 -20 -20 -20
-20 -20 -20 -20 -20 -20 -20 -20 -20 -20 -20 -20 -20 -20 -20 -20 -20 -20 -20 -20 -20 -20 -20 -20 -20 -20 -20 -20 -20 -20 -20 -20 -20 -20 -20 -20 -20 -20 -20 -20 -20 -20 -20
-20 -20 -20 -20 -20 -20 -20 -20 -20 -20 -20 -20 -20 -20 -20 -20 -20 -20 -20 -20 -20 -20 -20 -20 -20 -20 -20 -20 -20 -20 -20 -20 -20 -20 -20 -20 -20 -20 -20 -20 -20 -20 -20
-20 -20 -20 -20 -20 -20 -20 -20 -20 -20 -20 -20 -20 -20 -20 -20 -20 -20 -20 -20 -20 -20 -20 -20 -20 -20 -20 -20 -20 -20 -20 -20 -20 -20 -18 -20 -20 -20 -20 -20 -20 -20 -20
-20 -20 -20 -20 -20 -20 -20 -20 -20 -20 -20 -20 -20 -20 -20 -20 -20 -20 -20 -20 -20 -20 -20 -20 -20 -20 -20 -20 -20 -20 -20 -20 -20 -17 -10 11 7 -17 -18 -20 -20 -20 -20
-14 -19 -19 -20 -5 -20 -20 -20 -20 -20 -20 -20 -20 -20 -20 -20 -20 -20 -20 -20 -20 -20 26 3 -6 -16 -16 -20 -20 -20 -20 -20 2 -20 25 -10 2 7 -19 -20 1 -20 -20
-20 -20 25 17 -19 -20 -20 -20 -20 -14 -3 -20 -20 -20 -20 -19 -16 -8 17 -11 -4 19 13 23 15 3 -1 -11 -20 -20 -20 26 -20 20 22 15 10 10 1 -20 -20 -20 -20
-20 -20 -20 -14 -5 19 -3 -9 -20 -20 -18 -20 -20 -20 3 -18 30 6 28 30 25 20 34 10 -4 7 -20 1 -9 -16 -13 -20 -16 -12 -8 -3 29 40 32 -19 4 -13 -20
-20 -20 -20 14 -20 -20 -20 -20 -20 -18 3 -16 3 1 -9 21 2 26 24 27 12 29 28 -20 -11 15 19 15 12 6 -5 18 -17 -6 21 4 19 -5 -19 12 -16 11 -20
-20 -20 -14 -0 -4 -6 17 18 18 9 19 28 4 7 13 4 -5 21 24 20 30 39 24 27 2 26 17 9 -18 14 20 26 17 23 15 -9 -4 -2 -17 -8 -6 9 -20
3 4 -1 -4 -20 -20 -20 11 16 19 16 32 30 13 0 2 13 23 9 9 23 35 24 -7 -20 18 -3 -4 -6 -6 -20 -10 18 24 10 27 25 33 -8 -5 -16 10 14
28 21 25 24 -11 -17 -20 -20 -6 14 31 28 29 16 30 17 33 30 32 22 34 26 24 7 -20 24 -6 -20 -20 12 -1 -20 19 23 34 23 9 12 12 -20 -14 -5 -0
24 22 20 -9 -8 -20 -20 -20 -17 -3 1 24 35 13 -3 25 26 25 26 17 28 3 18 17 11 14 -19 -19 8 4 24 -2 3 27 21 10 9 31 10 2 8 16 15
-10 -9 -2 14 -14 -15 -11 -18 -20 -9 -4 6 18 11 4 4 14 21 13 18 16 18 -2 9 12 9 4 18 -16 5 7 -20 -10 7 9 18 17 10 28 17 10 10 19
-20 -20 -20 -20 -20 -20 -17 -14 -20 -20 -10 26 27 6 17 16 21 14 13 5 11 -4 3 20 10 15 26 24 13 -17 15 19 16 11 12 8 20 8 14 13 22 21 27
-20 -20 -20 -20 -20 -20 -19 -16 -11 -20 -15 -15 -4 24 25 28 28 8 10 15 9 9 4 27 2 -19 -20 -19 -6 18 -14 4 20 -10 -11 8 7 13 -3 20 7 17 20
-20 -20 -20 -20 -20 -20 -20 -20 -18 -20 -20 -20 -20 -20 -20 -20 1 -20 10 7 8 12 18 -10 -6 -18 -20 7 2 -18 -20 -15 12 9 11 11 17 13 12 12 21 13 -19
-11 -20 -20 -20 -20 -20 -20 -20 -20 -20 -20 -20 -20 -20 -20 -20 -18 -9 -20 -20 -20 -20 -20 -3 6 17 14 -1 -18 -20 -20 -16 4 8 11 -4 -3 -1 16 31 20 -20 -20
19 24 26 8 -11 -20 -20 -7 8 -20 -20 15 -20 -20 -20 -20 -20 -3 -20 -20 -20 -1 -19 7 10 6 7 7 -9 -3 -18 -20 -15 -9 -10 -17 -16 8 25 7 -20 -20 -20
-12 -3 12 9 12 -14 -20 -20 -10 -19 -20 -3 -19 -20 4 6 -20 -6 -20 -20 -9 9 -19 -20 -5 -12 6 -2 -4 -19 -16 -20 -9 -14 -10 13 22 16 9 3 -20 -20 -20

GFSMA_prec_radar_258.txt.gz
Reflectivity
-20 -20 -20 -20 -20 -20 -20 -20 -20 -20 -20 -20 -20 -20 -20 -20 -20 -20 -20 -20 -20 -20 -20 -20 -20 -20 -20 -20 -20 -20 -20 -20 -20 -2 -20 -20 -20 -20 -20 -20 -20 -20 -20
-20 -20 -20 -20 -20 -20 -20 -20 -20 -20 -20 -20 -20 -20 -20 -20 -20 -20 -20 -20 -20 -20 -20 -20 -20 -18 -20 12 -20 -20 -20 -20 -5 -20 -20 -20 -20 -20 -20 -20 -20 -20 -20
-20 -20 -20 -20 -20 -20 -20 -20 -20 -20 -20 -20 -20 -20 -20 -20 -20 -20 -20 -20 -20 -20 -20 -20 -20 -20 -20 -20 -20 -20 -20 -20 -20 -20 -20 -20 -20 -20 -20 -20 -20 -20 -20
-20 -20 -20 -20 -20 -20 -20 -20 -20 -20 -20 -20 -20 -20 -20 -20 -20 -20 -20 -20 -20 -20 -20 -20 -20 -20 -20 -20 -20 -2 -20 -20 -20 -20 -20 -20 -20 -20 -20 -20 -20 -20 -20
-20 -20 -20 -20 -20 -20 -20 -20 -20 -20 -20 -20 -20 -20 -20 -20 -20 -20 -20 -20 -20 -20 -20 -20 -20 -20 -20 -20 -20 -10 -20 -20 -20 -20 -20 -20 -20 -20 -20 -20 -20 -20 -20
-20 -20 -20 -20 -20 -20 -20 -20 -20 -20 -20 -20 -20 -20 -20 -20 -20 -20 -20 -20 -20 -20 -20 -20 -20 -20 -20 -20 -20 -10 -20 -20 -20 -20 -20 -20 -20 -20 -20 -20 -20 -20 -20
-20 -20 -20 -20 -20 -20 -20 -20 -20 -20 -20 -20 -20 -20 -20 -20 -20 -20 -20 -20 -20 -20 -20 -20 -20 -20 -20 -20 -20 -20 -20 -20 -20 -20 -20 -20 -20 -20 -20 -20 -20 -20 -20
-20 -20 -20 -20 -20 -20 -20 -20 -20 -20 -20 -20 -20 -20 -20 -20 -20 -20 -20 -20 -20 -20 -20 -20 -20 -20 -20 -20 -20 -20 -20 -20 -20 -20 -20 -20 -20 -20 -19 -20 -20 -20 -20
-20 -20 -20 -20 -20 -20 -20 -20 -20 -20 -20 -20 -20 -20 -20 -20 -20 -20 -20 -20 -20 -20 -20 -20 -20 -20 -20 -4 -6 -20 -20 -20 -20 -20 -20 -20 -20 -20 -16 -8 -20 -20 -20
-20 -20 -20 -20 -20 -20 -20 -20 -20 -20 -20 -20 -20 -20 -20 -20 -20 -20 -20 -20 -20 -20 -20 -20 -20 -20 -20 -20 -20 -20 -6 -20 -20 -20 -20 -20 -20 -20 1 -16 -20 -20 -20
-20 -20 -20 -20 -20 -20 -20 -20 -20 -20 -20 -20 -20 -20 -20 -20 -20 -20 -20 -20 -20 -20 -20 -20 -20 -20 -20 -20 -20 -19 -18 -20 -20 -20 -20 -20 -3 -9 10 12 6 -20 -20
-20 -20 -20 -20 -20 -20 -20 -20 -20 -20 -20 -20 -20 -20 -20 -20 -20 -20 -20 -18 -18 -20 -20 -20 -19 -14 8 -20 -20 -20 -16 -18 -20 -10 -19 -20 -20 -20 -13 -3 -5 -20 -8
29 -3 7 -4 -10 -20 -20 -20 -20 -20 -20 -20 -20 -20 -20 -20 -20 -20 -13 -12 -2 -18 2 8 7 6 22 -7 -20 -20 9 28 27 25 -20 -19 1 22 23 18 2 -7 -9
-20 -20 -20 -11 26 -8 -8 -15 -20 -20 -20 -20 -20 -20 -20 -20 -20 -19 -9 3 11 9 -19 -2 14 25 29 24 -1 2 25 -14 27 22 -11 -20 -9 19 18 28 22 7 6
-20 -18 -4 -20 -20 -20 -20 -20 -20 -20 -4 6 5 -3 0 -9 6 -15 15 18 15 -0 6 -18 -20 5 28 29 33 20 20 -17 21 24 25 29 19 28 35 22 24 7 -12
12 9 -2 12 -4 -20 -20 -16 -12 -1 8 -17 -20 -2 4 -14 -12 -12 9 -2 2 16 19 -20 -10 6 23 30 30 31 19 20 22 22 23 9 18 23 30 40 12 23 4
-20 -8 -6 22 21 20 12 13 -20 9 18 -1 -2 4 -18 -15 11 19 23 15 24 16 4 -20 2 16 26 14 7 28 23 -7 10 -20 1 5 18 15 -6 13 15 4 -14
22 17 16 8 24 3 5 15 22 10 -18 12 6 11 -20 -1 4 -18 -0 32 14 6 20 26 16 14 24 26 22 19 16 22 12 -18 19 11 18 19 17 -1 -12 10 -19
10 17 14 20 19 20 26 12 22 12 3 -18 -20 -20 -20 -20 -20 -10 29 17 15 11 7 12 3 8 18 3 -1 13 22 26 -14 3 -7 5 11 14 14 15 23 -1 2
7 -5 20 -7 20 16 21 16 20 15 -5 -0 7 -4 -10 -20 -20 -8 -16 -10 -5 -5 1 -2 1 15 1 3 9 20 0 -10 -1 -12 10 10 17 18 18 15 14 15 -4
-15 1 7 -10 -11 3 5 -13 7 7 19 17 26 26 -9 19 24 2 -15 -20 30 -7 22 12 10 19 19 6 5 1 -6 1 -20 -16 -11 5 14 4 4 19 22 26 17
-20 -20 -20 -20 -20 -5 -3 -14 -13 -20 -20 -20 12 -20 25 29 19 18 19 25 20 25 -8 3 2 19 9 -18 15 -20 -10 -19 12 -16 -18 -6 7 18 10 11 23 27 20
-20 -20 -20 -20 -20 -20 -20 -20 -20 -20 -20 -20 -20 -20 -20 -20 -4 -20 6 11 9 -8 21 -12 -11 -14 -19 29 16 17 8 4 -14 -8 -19 -1 13 19 16 19 21 12 8
-20 -20 -20 -20 -20 -20 -20 -20 -20 -20 -20 -20 -20 -20 -17 -16 -20 -11 -20 -13 -20 -20 -18 -15 -20 -20 -20 -20 -20 -11 3 -2 4 10 9 6 1 15 26 22 23 7 5
12 6 -11 -20 -20 -20 -20 -20 -10 -20 -20 -8 -20 -3 4 -20 -20 8 -14 -20 -20 15 -20 -20 -18 -12 11 11 3 -15 -13 14 -2 -8 -0 -12 -7 -3 2 13 27 20 3
5 -1 -14 -1 7 -5 0 12 1 8 10 -13 -15 -19 -20 -18 -20 -12 -20 -20 -4 20 13 14 15 11 5 5 8 -3 -13 21 -12 -17 -7 2 -5 -10 11 15 14 9 2